STARLINK-34290, 64929

Orbit data source: Space-Track

STARLINK-34290, 64929 is a payload satellite owned by SpaceX/Seattle (US) in LEO that was launched on Sat, 26 Jul 2025 UTC via an FALCON 9 launch vehicle from the Air Force Eastern Test Range (AFETR). Payload-class satellites include a variety of spacecraft equipped with specific instruments for various scientific and technological missions. These include communications satellites like Starlink; space stations such as the ISS; scientific satellites like the Hubble; Earth observation satellites from companies like Planet Labs, Umbra, and HawkEye 360; GPS; miniature CubeSats for education and research; and military/defense satellites.

Loading next visibility...
Identifier
64929, 2025-157AB
Orbit
LEO
Country
Flag of USUS
Related business
Manufacturer
SpaceX/Seattle
Mission
Operational Commercial Communications
Bus & Motor
STARLINK V2MO, Unknown motor
Mass
575 kg wet, ~530 kg dry
Launch date (UTC)
2025-07-26 (10 months ago)
Launch vehicle
FALCON 9
Launch site
Air Force Eastern Test Range (AFETR)
Object type
Payload
Rocket body
Debris
Shape & HBR
Box + 2 Pan, 17.7 m
Radar Cross Section
36.964 m², Large (>1 m²)

Expand to show TLE details & history
Last TLE update: 1 day ago

TLE from 1 day ago
0 STARLINK-34290
1 64929U 25157AB  26144.85118260  .00027207  00000-0  92737-3 0  9997
2 64929  53.1601 351.9590 0001064  86.8510 273.2613 15.30199590 47781
Epoch: 2026-05-24T20:25Z
TLE epoch observation values (Epoch: 2026-05-24T20:25:42.176Z)
Latitude
0.00001°
Longitude
163.08588°
Altitude
476.075 km
Speed
7.629 km/s
True Right ascension
23h 27m 50s
True Declination
0° 00' 00"
Sunlit
Object was in daylight at epoch
Visualization orbit readout
Latitude
Unknown
Longitude
Unknown
Altitude
Unknown
Speed
Unknown
Apparent Right ascension
Unknown
Apparent Declination
Unknown
Sunlit
N/A
Visualization observer readout
Local Sidereal Time
06:09:11
Azimuth
Unknown
Elevation
Unknown
Doppler factor
Unknown
Orbital elements
Apogee altitude
476.202 km
Perigee altitude
474.743 km
Semi-major axis
6,853.61 km
Eccentricity
0.00011
Inclination
53.1601°
RAAN
351.959°
Arg. of periapsis
86.851°
True anomaly
273.24913°
Mean anomaly
273.2613°
Eccentric anomaly
273.25521°
Mean motion
3.82529 °/min
Orbital period
94.11 mins
BSTAR
0.00092737
Loading maneuver chart data...
Computing Atmospheric mass density...
Loading historical data...
Loading historical data...
Loading historical data...
Loading historical data...
Loading historical data...
Loading historical data...
Loading historical data...

Documentation

Showing up to 5 results
|